TimeCST,TemperatureF,Dew PointF,Humidity,Sea Level PressureIn,VisibilityMPH,Wind Direction,Wind SpeedMPH,Gust SpeedMPH,PrecipitationIn,Events,Conditions,WindDirDegrees,DateUTC
12:18 AM,53.6,53.6,100,29.86,1.2,SSE,6.9,-,N/A,,Overcast,150,2013-02-07 06:18:00
12:43 AM,53.6,51.8,94,29.85,2.0,South,11.5,-,N/A,,Overcast,170,2013-02-07 06:43:00
12:52 AM,54.0,52.0,93,29.82,2.0,South,9.2,-,N/A,,Overcast,170,2013-02-07 06:52:00
1:03 AM,53.6,51.8,94,29.85,1.5,South,8.1,-,0.00,Rain,Light Rain,170,2013-02-07 07:03:00
1:52 AM,53.1,51.1,93,29.81,1.5,South,11.5,-,0.00,Rain,Light Rain,170,2013-02-07 07:52:00
2:25 AM,51.8,50.0,94,29.84,2.0,SSE,8.1,-,0.00,,Overcast,160,2013-02-07 08:25:00
2:52 AM,52.0,50.0,93,29.81,2.0,SSE,9.2,-,0.00,,Overcast,150,2013-02-07 08:52:00
3:07 AM,51.8,50.0,94,29.84,1.5,SSE,10.4,-,N/A,,Overcast,150,2013-02-07 09:07:00
3:40 AM,51.8,50.0,94,29.83,2.0,SSE,10.4,-,0.00,,Overcast,150,2013-02-07 09:40:00
3:52 AM,51.1,50.0,96,29.80,2.5,SSE,9.2,-,0.00,,Overcast,150,2013-02-07 09:52:00
4:04 AM,51.8,50.0,94,29.83,3.0,SSE,9.2,-,N/A,,Overcast,160,2013-02-07 10:04:00
4:52 AM,51.1,50.0,96,29.81,4.0,South,4.6,-,N/A,,Overcast,170,2013-02-07 10:52:00
5:17 AM,51.8,50.0,94,29.87,4.0,NNW,6.9,-,0.03,Rain,Heavy Rain,340,2013-02-07 11:17:00
5:29 AM,51.8,48.2,88,29.87,9.0,North,11.5,-,0.03,Rain,Light Rain,10,2013-02-07 11:29:00
5:52 AM,52.0,48.9,89,29.87,7.0,North,13.8,-,0.03,Rain,Light Rain,360,2013-02-07 11:52:00
5:59 AM,51.8,48.2,88,29.89,6.0,North,12.7,-,0.01,Rain,Rain,10,2013-02-07 11:59:00
6:10 AM,51.8,48.2,88,29.89,6.0,North,12.7,-,0.01,Rain,Light Rain,10,2013-02-07 12:10:00
6:49 AM,50.0,46.4,87,29.90,7.0,NNE,13.8,23.0,0.03,Rain,Light Rain,20,2013-02-07 12:49:00
6:52 AM,50.0,46.9,89,29.88,8.0,NNE,13.8,23.0,0.03,Rain,Light Rain,20,2013-02-07 12:52:00
7:03 AM,50.0,46.4,87,29.90,7.0,NNE,13.8,-,N/A,,Overcast,20,2013-02-07 13:03:00
7:52 AM,48.0,45.0,89,29.92,5.0,North,15.0,23.0,N/A,,Overcast,10,2013-02-07 13:52:00
8:52 AM,43.0,39.0,86,29.98,5.0,North,16.1,-,N/A,,Overcast,360,2013-02-07 14:52:00
9:27 AM,42.8,35.6,76,30.02,10.0,North,16.1,21.9,N/A,,Overcast,360,2013-02-07 15:27:00
9:52 AM,44.1,36.0,73,30.00,10.0,North,15.0,25.3,N/A,,Mostly Cloudy,10,2013-02-07 15:52:00
10:08 AM,44.6,37.4,76,30.02,10.0,North,16.1,-,N/A,,Scattered Clouds,10,2013-02-07 16:08:00
10:52 AM,46.9,35.1,63,30.02,10.0,North,15.0,27.6,N/A,,Partly Cloudy,360,2013-02-07 16:52:00
11:52 AM,50.0,35.1,57,30.03,10.0,North,19.6,25.3,N/A,,Clear,350,2013-02-07 17:52:00
12:52 PM,48.9,34.0,56,30.04,10.0,North,19.6,31.1,N/A,,Clear,360,2013-02-07 18:52:00
1:52 PM,53.1,34.0,48,30.03,10.0,North,17.3,24.2,N/A,,Clear,360,2013-02-07 19:52:00
2:52 PM,53.1,32.0,45,30.03,10.0,North,19.6,27.6,N/A,,Clear,360,2013-02-07 20:52:00
3:52 PM,55.0,30.0,38,30.04,10.0,North,19.6,26.5,N/A,,Clear,350,2013-02-07 21:52:00
4:52 PM,53.1,28.9,40,30.06,10.0,North,16.1,24.2,N/A,,Clear,10,2013-02-07 22:52:00
5:52 PM,50.0,30.0,46,30.09,10.0,North,10.4,-,N/A,,Clear,360,2013-02-07 23:52:00
6:52 PM,45.0,30.0,56,30.12,10.0,North,6.9,-,N/A,,Clear,360,2013-02-08 00:52:00
7:52 PM,45.0,28.9,53,30.15,10.0,NNE,9.2,-,N/A,,Clear,20,2013-02-08 01:52:00
8:52 PM,42.1,28.9,60,30.18,10.0,NNE,8.1,-,N/A,,Clear,20,2013-02-08 02:52:00
9:52 PM,39.0,28.0,65,30.20,10.0,NNE,5.8,-,N/A,,Clear,30,2013-02-08 03:52:00
10:52 PM,37.0,27.0,67,30.20,10.0,NNE,6.9,-,N/A,,Clear,20,2013-02-08 04:52:00
11:52 PM,36.0,28.0,73,30.22,10.0,NNE,8.1,-,N/A,,Clear,20,2013-02-08 05:52:00